User: anonymous   Login
Location: Henham
(51.9333°N, 0.2500°E)
Time: 18:57:09
(UTC+00:00)
Language:

STARLINK-33 - Orbit

View from above orbital plane
View from above orbital plane
View from above satellite
View from above satellite

Ground track
Ground track

The orbit data is extracted from the following two-line orbital elements,

1 44247U 19029N   19341.25001157 -.00031233  00000-0 -17823-2 0  9998
2 44247  53.0030   6.5805 0001399 142.5121 223.9953 15.12131826 29886
Epoch (UTC): 07 December 2019 06:00:01
Eccentricity: 0.0001399
inclination: 53.0030°
perigee height: 529 km
apogee height: 530 km
right ascension of ascending node: 6.5805°
argument of perigee: 142.5121°
revolutions per day: 15.12131826
mean anomaly at epoch: 223.9953°
orbit number at epoch: 2988

The dashed part of the orbit path shows where the satellite is in the earth's shadow,  

DLR